This is the latest recevied weather packets stored in our database for station/object VR2OT-10. If no packets are shown the sender has not sent any weather packets the latest 10 day(s).
| Time | Temp. | Humidity | Pressure | Rain* | Wind** | Luminosity | Snow |
|---|---|---|---|---|---|---|---|
| 1788156632 | 26.11° C | 92% | 998.3 hPa | - | 0.45 m/s, ° | - | - |
| 1788155733 | 25.56° C | 93% | 998.6 hPa | - | 1.34 m/s, 270° | - | - |
| 1788154833 | 25.56° C | 93% | 998.8 hPa | - | 0.45 m/s, 270° | - | - |
| 1788153932 | 25° C | 92% | 999.1 hPa | - | 0 m/s | - | - |
| 1788153034 | 25° C | 90% | 999.2 hPa | - | 0 m/s | - | - |
| 1788152133 | 25.56° C | 91% | 999.4 hPa | - | 2.24 m/s, 90° | - | - |
| 1788151231 | 25.56° C | 91% | 999.4 hPa | - | 0.89 m/s, 135° | - | - |
| 1788150333 | 26.67° C | 91% | 999.5 hPa | - | 3.13 m/s, 90° | - | - |
| 1788149434 | 26.67° C | 90% | 999.5 hPa | - | 3.58 m/s, 90° | - | - |
| 1788148532 | 27.78° C | 87% | 999.7 hPa | - | 3.58 m/s, 270° | - | - |
| 1788147634 | 28.33° C | 79% | 999.7 hPa | - | 2.68 m/s, 135° | - | - |
| 1788146732 | 28.89° C | 77% | 999.7 hPa | - | 3.58 m/s, 135° | - | - |
| 1788144933 | 28.89° C | 77% | 999.8 hPa | - | 1.79 m/s, 135° | - | - |
| 1788144034 | 28.89° C | 76% | 999.8 hPa | - | 1.34 m/s, 180° | - | - |
| 1788143131 | 28.33° C | 77% | 999.7 hPa | - | 0.89 m/s, 135° | - | - |
| 1788142234 | 28.89° C | 77% | 999.6 hPa | - | 1.34 m/s, 135° | - | - |
| 1788141333 | 29.44° C | 80% | 999.6 hPa | - | 0.89 m/s, 180° | - | - |
| 1788140432 | 29.44° C | 78% | 999.6 hPa | - | 0.45 m/s, 180° | - | - |
| 1788139533 | 28.89° C | 81% | 999.7 hPa | - | 0.45 m/s, 180° | - | - |
| 1788138633 | 28.89° C | 79% | 999.8 hPa | - | 0 m/s | - | - |
| 1788137732 | 27.78° C | 81% | 999.8 hPa | - | 0.45 m/s, 135° | - | - |
| 1788136834 | 27.78° C | 81% | 999.9 hPa | - | 0.45 m/s, 180° | - | - |
| 1788135932 | 27.22° C | 80% | 999.9 hPa | - | 0 m/s | - | - |
| 1788135031 | 26.67° C | 82% | 999.9 hPa | - | 0.89 m/s, 135° | - | - |
| 1788134133 | 26.67° C | 82% | 999.7 hPa | - | 1.34 m/s, 135° | - | - |
* Rain since midnight (hover to see other rain measurements)
** Current wind speed in m/s (hover to see current wind gust speed)